Simultaneous Nadir Overpasses (SNOs) Predictions

Prediction of SNOs between GOES-15 and NOAA-20 Satellite Orbit:

Table of predicted SNOs for the next 14.0 days since TLE Epoch: 7/16/2022
Index Date Time (GOES-15) GOES-15 Lat,Lon NOAA-20 Lat,Lon Distance(km) Time Diff (sec)
1 07/17/2022 10:11:47 -0.25,-128.36 0.52,-131.91 403.99 80
2 07/18/2022 09:55:40 -0.23,-128.35 -0.43,-127.36 111.40 80
3 07/19/2022 22:14:57 0.26,-128.31 -0.69,-132.68 497.09 80
4 07/20/2022 21:58:50 0.25,-128.30 0.26,-128.13 18.67 80
5 07/23/2022 09:59:12 -0.27,-128.27 -0.13,-128.87 69.18 80
6 07/24/2022 09:43:07 -0.26,-128.25 -1.14,-124.34 445.40 80
7 07/25/2022 22:02:22 0.29,-128.20 -0.03,-129.64 164.58 80
8 07/26/2022 21:46:17 0.28,-128.18 0.99,-125.11 350.03 80
9 07/28/2022 10:05:24 -0.32,-128.16 0.15,-130.39 253.27 80
10 07/29/2022 09:49:17 -0.30,-128.13 -0.80,-125.84 260.85 80
